Waarnemingen

Advertentie
Mijn weer
Europlatform, Nederland (6321): temperatuur & dauwpunt: 18.02.2017 09:00:00 - 24.02.2017 09:00:00 (CET)Europlatform, Nederland (6321): water temperatuur: 18.02.2017 09:00:00 - 24.02.2017 09:00:00 (CET)Europlatform, Nederland (6321): windsnelheid & windstoten: 18.02.2017 09:00:00 - 24.02.2017 09:00:00 (CET)Europlatform, Nederland (6321): windrichting: 18.02.2017 09:00:00 - 24.02.2017 09:00:00 (CET)Europlatform, Nederland (6321): luchtdruk: 18.02.2017 09:00:00 - 24.02.2017 09:00:00 (CET)Europlatform, Nederland (6321): zicht: 18.02.2017 09:00:00 - 24.02.2017 09:00:00 (CET)
Datum & Tijd tt [°C] td [°C] tw [°C] ff [km/u] ff [kn] fx [km/u] fx [kn] dd ppp [hPa] vv [km]
24.02.2017 09:00:00 - - 4,8 27 14 - - WNW 1012,2 33
24.02.2017 08:00:00 5,0 1,9 4,8 18 10 36 19 W 1011,4 33
24.02.2017 07:00:00 5,3 1,9 4,9 29 16 40 21 WNW 1010,2 29
24.02.2017 06:00:00 4,6 2,2 4,9 22 12 43 23 NW 1009,5 22
24.02.2017 05:00:00 5,4 2,1 5,0 36 19 47 25 W 1008,3 24
24.02.2017 04:00:00 5,3 2,1 5,0 40 21 54 29 W 1007,2 24
24.02.2017 03:00:00 4,0 1,3 5,1 47 25 58 31 WNW 1006,5 10
24.02.2017 02:00:00 4,8 1,8 5,1 40 21 68 37 W 1005,3 24
24.02.2017 01:00:00 4,3 2,2 5,1 40 21 68 37 W 1003,7 19
24.02.2017 00:00:00 5,5 2,8 5,1 54 29 72 39 W 1001,9 7
23.02.2017 23:00:00 5,8 2,6 5,1 47 25 72 39 WNW 999,7 14
23.02.2017 22:00:00 5,7 2,7 5,0 65 35 90 49 WNW 997,2 7
23.02.2017 21:00:00 5,5 2,8 5,0 76 41 104 56 W 993,9 4,6
23.02.2017 20:00:00 6,9 2,4 5,0 76 41 104 56 W 991,7 12
23.02.2017 19:00:00 7,6 1,9 5,0 72 39 101 54 WZW 990,5 12
23.02.2017 18:00:00 8,6 2,1 5,0 65 35 94 51 WZW 989,3 12
23.02.2017 17:00:00 8,5 2,3 5,0 65 35 97 53 WZW 988,4 12
23.02.2017 16:00:00 8,7 2,6 5,0 61 33 104 56 ZW 987,8 12
23.02.2017 15:00:00 9,1 2,5 5,1 72 39 97 53 ZW 987,7 10
23.02.2017 14:00:00 9,1 2,8 5,1 68 37 94 51 ZW 988,3 12
23.02.2017 13:00:00 9,1 4,2 5,1 68 37 83 45 ZW 989,2 12
23.02.2017 12:00:00 8,8 7,2 5,1 68 37 94 51 ZZW 990,0 8
23.02.2017 11:00:00 7,7 6,9 5,1 65 35 83 45 Z 990,9 3,6
23.02.2017 10:00:00 7,6 7,2 5,0 61 33 76 41 Z 992,7 5
23.02.2017 09:00:00 7,4 7,0 5,0 58 31 72 39 ZZW 995,2 2,5
23.02.2017 08:00:00 7,8 7,0 5,0 58 31 68 37 ZZW 996,2 6
23.02.2017 07:00:00 8,2 7,4 5,0 54 29 65 35 ZZW 998,1 9
23.02.2017 06:00:00 8,2 7,6 5,1 54 29 65 35 ZZW 999,2 8
23.02.2017 05:00:00 8,2 7,3 5,1 54 29 65 35 ZZW 1000,0 8
23.02.2017 04:00:00 8,1 7,3 5,1 47 25 58 31 ZZW 1001,0 8
23.02.2017 03:00:00 8,0 7,3 5,1 47 25 54 29 ZZW 1002,3 4,9
23.02.2017 02:00:00 8,2 7,5 5,2 40 21 50 27 ZW 1003,3 6
23.02.2017 01:00:00 8,0 7,8 5,2 25 14 29 16 WZW 1004,2 2,3
23.02.2017 00:00:00 8,1 7,9 5,2 29 16 32 18 WZW 1004,7 2,4
22.02.2017 23:00:00 8,2 7,9 5,2 25 14 43 23 WZW 1005,1 5
22.02.2017 22:00:00 8,8 8,4 5,1 32 18 43 23 WZW 1005,3 2,4
22.02.2017 21:00:00 8,4 8,1 5,1 36 19 43 23 ZW 1005,5 5
22.02.2017 20:00:00 8,5 7,9 5,1 40 21 47 25 ZZW 1005,4 9
22.02.2017 19:00:00 8,1 7,6 5,1 40 21 43 23 ZW 1005,6 11
22.02.2017 18:00:00 8,2 7,5 5,1 40 21 43 23 ZW 1005,9 6
22.02.2017 17:00:00 8,5 6,8 5,1 29 16 43 23 ZW 1005,9 11
22.02.2017 16:00:00 8,2 7,6 5,2 29 16 54 29 WZW 1006,0 4,8
22.02.2017 15:00:00 8,5 7,2 5,2 50 27 61 33 ZW 1005,4 9
22.02.2017 14:00:00 8,5 7,1 5,2 50 27 61 33 ZW 1005,8 10
22.02.2017 13:00:00 8,5 7,1 5,2 50 27 - - ZW 1006,2 10
22.02.2017 12:00:00 8,6 7,1 5,2 54 29 65 35 ZZW 1006,4 10
22.02.2017 11:00:00 8,6 7,0 5,2 54 29 65 35 ZW 1006,7 10
22.02.2017 10:00:00 8,4 6,8 5,2 47 25 58 31 ZW 1006,6 11
22.02.2017 09:00:00 9,1 7,0 5,1 43 23 58 31 ZW 1006,7 14
22.02.2017 08:00:00 9,0 7,0 5,1 47 25 58 31 ZW 1006,6 13
22.02.2017 07:00:00 8,6 6,9 5,1 43 23 54 29 ZW 1006,4 12
22.02.2017 06:00:00 8,3 6,9 5,1 43 23 58 31 ZW 1006,6 10
22.02.2017 05:00:00 8,4 6,9 5,1 47 25 61 33 ZW 1006,7 10
22.02.2017 04:00:00 8,4 7,1 5,2 54 29 68 37 ZZW 1006,8 9
22.02.2017 03:00:00 8,3 7,0 5,2 50 27 65 35 ZZW 1007,4 9
22.02.2017 02:00:00 8,2 7,3 5,2 54 29 68 37 ZZW 1008,3 8
22.02.2017 01:00:00 8,1 7,4 5,3 54 29 65 35 ZZW 1009,0 6
22.02.2017 00:00:00 8,4 7,5 5,2 54 29 65 35 ZZW 1009,6 8
21.02.2017 23:00:00 8,3 7,4 5,3 50 27 58 31 ZZW 1010,2 8
21.02.2017 22:00:00 8,2 7,4 5,2 47 25 54 29 ZZW 1010,6 8
21.02.2017 21:00:00 8,1 7,4 5,2 43 23 47 25 ZZW 1011,0 8
21.02.2017 20:00:00 7,2 6,9 5,2 40 21 47 25 ZZW 1011,7 4,1
21.02.2017 19:00:00 7,1 6,6 5,2 32 18 40 21 Z 1012,5 7
21.02.2017 18:00:00 7,7 7,1 5,2 32 18 36 19 ZZW 1013,2 10
21.02.2017 17:00:00 7,6 7,0 5,2 29 16 32 18 ZZW 1013,7 14
21.02.2017 16:00:00 7,7 7,2 5,2 29 16 32 18 ZZW 1014,8 9
21.02.2017 15:00:00 7,3 6,6 5,2 25 14 29 16 ZZW 1015,6 11
21.02.2017 14:00:00 7,7 6,1 5,2 22 12 25 14 ZW 1016,2 24
21.02.2017 13:00:00 7,9 6,0 5,2 18 10 22 12 WZW 1016,8 25
21.02.2017 12:00:00 8,3 5,9 5,2 14 8 - - WZW 1016,7 21
21.02.2017 11:00:00 8,5 6,2 5,2 18 10 - - W 1016,8 17
21.02.2017 10:00:00 8,1 6,8 5,2 22 12 32 18 WZW 1016,3 12
21.02.2017 09:00:00 7,9 7,0 5,2 25 14 32 18 WZW 1016,1 9
21.02.2017 08:00:00 8,2 7,1 5,2 29 16 32 18 WZW 1015,4 9
21.02.2017 07:00:00 8,2 7,2 5,2 25 14 32 18 WZW 1015,1 9
21.02.2017 06:00:00 8,4 7,2 5,2 29 16 36 19 WZW 1015,0 11
21.02.2017 05:00:00 8,2 7,1 5,2 25 14 36 19 WZW 1015,0 11
21.02.2017 04:00:00 8,4 7,3 5,2 29 16 36 19 WZW 1015,2 15
21.02.2017 03:00:00 8,4 7,3 5,2 29 16 36 19 WZW 1015,1 12
21.02.2017 02:00:00 8,9 7,4 5,2 25 14 32 18 WZW 1015,5 22
21.02.2017 01:00:00 8,6 7,1 5,2 29 16 36 19 WZW 1015,5 19
21.02.2017 00:00:00 9,1 7,4 5,2 32 18 36 19 WZW 1015,2 19
20.02.2017 23:00:00 8,9 7,4 5,2 29 16 36 19 WZW 1015,2 15
20.02.2017 22:00:00 9,5 7,8 5,2 32 18 36 19 WZW 1015,3 18
20.02.2017 21:00:00 9,0 7,3 5,2 29 16 40 21 ZW 1015,0 16
20.02.2017 20:00:00 9,0 7,3 5,2 32 18 40 21 ZW 1014,9 16
20.02.2017 19:00:00 8,9 7,4 5,2 29 16 43 23 ZW 1014,6 14
20.02.2017 18:00:00 8,9 7,6 5,1 40 21 50 27 ZW 1014,3 10
20.02.2017 17:00:00 8,5 7,7 5,1 40 21 47 25 ZW 1014,4 8
20.02.2017 16:00:00 7,3 7,0 5,1 40 21 50 27 ZW 1014,5 0,3
20.02.2017 15:00:00 8,2 7,5 5,1 40 21 47 25 ZW 1015,0 6
20.02.2017 14:00:00 8,0 7,6 5,1 40 21 47 25 ZW 1015,3 5
20.02.2017 13:00:00 8,0 7,6 5,2 40 21 47 25 ZZW 1015,4 3,9
20.02.2017 12:00:00 7,8 7,5 5,1 36 19 47 25 ZW 1016,4 3,9
20.02.2017 11:00:00 7,7 7,4 5,2 36 19 47 25 ZW 1016,7 1,8
20.02.2017 10:00:00 7,8 7,3 5,1 40 21 50 27 ZW 1016,8 3,9
20.02.2017 09:00:00 7,7 7,2 5,1 36 19 43 23 ZW 1017,0 6
20.02.2017 08:00:00 7,6 7,1 5,1 40 21 43 23 ZW 1016,9 6
20.02.2017 07:00:00 7,5 7,0 5,1 36 19 47 25 ZW 1017,2 6
20.02.2017 06:00:00 7,4 6,5 5,1 36 19 40 21 ZZW 1017,3 10
20.02.2017 05:00:00 7,5 6,5 5,1 32 18 40 21 ZZW 1018,0 10
20.02.2017 04:00:00 7,6 6,4 5,1 32 18 40 21 ZZW 1017,8 12
20.02.2017 03:00:00 7,6 6,4 5,1 32 18 40 21 ZZW 1018,6 12
20.02.2017 02:00:00 7,3 6,1 5,1 29 16 36 19 ZZW 1019,3 13
20.02.2017 01:00:00 7,0 6,0 5,1 25 14 29 16 ZZW 1020,2 11
20.02.2017 00:00:00 7,3 6,1 5,2 25 14 29 16 ZZW 1020,6 17
19.02.2017 23:00:00 7,9 6,2 5,2 18 10 29 16 ZW 1020,9 27
19.02.2017 22:00:00 7,7 6,0 5,2 25 14 29 16 ZW 1020,9 21
19.02.2017 21:00:00 7,7 5,8 5,2 22 12 22 12 ZW 1021,1 24
19.02.2017 20:00:00 7,6 5,9 5,1 18 10 25 14 ZW 1021,2 19
19.02.2017 19:00:00 7,2 5,8 5,1 22 12 25 14 ZW 1021,2 12
19.02.2017 18:00:00 7,3 5,8 5,1 14 8 22 12 ZW 1020,7 13
19.02.2017 17:00:00 7,3 6,0 5,1 22 12 25 14 WZW 1020,5 10
19.02.2017 16:00:00 7,3 5,8 5,2 18 10 29 16 WZW 1020,7 9
19.02.2017 15:00:00 7,8 5,9 5,1 22 12 29 16 WZW 1020,7 8
19.02.2017 14:00:00 7,2 5,7 5,1 22 12 29 16 WZW 1020,8 7
19.02.2017 13:00:00 7,1 5,6 5,1 25 14 29 16 WZW 1021,0 7
19.02.2017 12:00:00 7,1 5,6 5,1 25 14 29 16 WZW 1021,4 8
19.02.2017 11:00:00 7,0 5,4 5,2 22 12 29 16 ZW 1021,2 7
19.02.2017 10:00:00 7,1 5,3 5,2 25 14 32 18 WZW 1021,3 8
19.02.2017 09:00:00 7,2 5,2 5,1 29 16 43 23 ZW 1021,0 8
19.02.2017 08:00:00 6,8 5,8 5,1 32 18 43 23 ZZW 1020,6 4,8
19.02.2017 07:00:00 6,7 5,9 5,1 40 21 47 25 ZZW 1020,3 3,4
19.02.2017 06:00:00 6,4 5,2 5,1 40 21 43 23 ZZW 1020,8 5
19.02.2017 05:00:00 6,2 5,1 5,1 36 19 43 23 ZZW 1021,5 5
19.02.2017 04:00:00 6,2 5,1 5,1 32 18 40 21 ZZW 1021,8 4,6
19.02.2017 03:00:00 6,1 5,0 5,1 36 19 43 23 Z 1021,6 4,3
19.02.2017 02:00:00 6,6 5,2 5,1 32 18 40 21 ZZW 1022,4 4,0
19.02.2017 01:00:00 6,6 5,0 5,1 29 16 32 18 ZZW 1023,2 4,1
19.02.2017 00:00:00 6,2 5,0 5,1 25 14 32 18 Z 1023,6 5
18.02.2017 23:00:00 6,4 4,9 5,1 25 14 29 16 ZZW 1023,5 10
18.02.2017 22:00:00 6,0 5,1 5,1 25 14 25 14 Z 1023,8 9
18.02.2017 21:00:00 6,6 4,9 5,1 22 12 29 16 ZZW 1024,1 8
18.02.2017 20:00:00 6,6 4,8 5,1 22 12 25 14 Z 1024,1 8
18.02.2017 19:00:00 6,4 5,2 5,1 22 12 25 14 Z 1024,4 5
18.02.2017 18:00:00 6,2 5,6 5,1 22 12 25 14 Z 1024,6 3,6
18.02.2017 17:00:00 5,0 4,8 5,1 18 10 22 12 Z 1024,7 0,1
18.02.2017 16:00:00 4,9 4,7 5,1 18 10 29 16 Z 1025,1 0,1
18.02.2017 15:00:00 3,7 3,5 5,1 22 12 25 14 Z 1025,2 0,1
18.02.2017 14:00:00 3,4 3,2 5,1 18 10 22 12 ZZO 1025,8 0,1
18.02.2017 13:00:00 3,3 3,1 5,1 14 8 18 10 ZZO 1026,5 0,1
18.02.2017 12:00:00 3,6 3,4 5,1 14 8 18 10 Z 1027,1 0,1
18.02.2017 11:00:00 3,7 3,4 5,1 14 8 22 12 Z 1027,1 0,1
18.02.2017 10:00:00 3,5 3,3 5,1 14 8 22 12 Z 1026,9 0,1
18.02.2017 09:00:00 3,6 3,4 5,1 18 10 18 10 Z 1027,0 0,1

tt = temperatuur
td = dauwpunt
tw = water temperatuur
ff = windsnelheid
fx = windstoten
dd = windrichting
ppp = luchtdruk
vv = zicht

Weerstations in de omgeving